Voltar ao catálogo

COSMOS 1275 DEB

AtivoPO
NORAD 14358·DEBRIS·🇷🇺 Russia

Lançado Jun 4, 1981 de Plesetsk Cosmodrome

Loading…

Próximas Passagens (próximas 24 horas)

TLE

AtualizadoSource: Space-Track

Época: Sep 14, 2026, 21:51 UTC

1 14358U 81053HR  26257.91097718  .00001775  00000-0  83513-3 0  9995
2 14358  82.8021 242.8933 0168116 139.8434 240.2001 14.12344205195651

Acompanhe COSMOS 1275 DEB em tempo real com AllMySat

Download on the App Store